Location: Ambrosina
(19.9365°S, 43.9833°W)
Time: 02:00:35
(UTC+00:00)

SL-16 R/B - Pass Details

Date: 11 May 2021
Orbit: 842 x 847 km, 71.0° (Epoch: 20 June)

Event Time Altitude Azimuth Distance (km) Brightness Sun altitude
Rises 22:13:56 0° 336° (NNW) 3,382 5.8 -24.7°
Reaches altitude 10° 22:16:23 10° 333° (NNW) 2,453 5.1 -25.2°
Maximum altitude 22:21:57 63° 252° (WSW) 943 2.5 -26.5°
Enters shadow 22:24:32 32° 183° (S) 1,416 3.2 -27.1°
